SCP
1 1 1 1 1 1 1 1 1 1 0 0 0 0 0 0 0 0 0 1 1 1 1 1 1 1 1 1 1 1 1 1 1 1 1 0 0 0 0 0 0 0 0
1 1 1 1 1 1 1 1 1 1 1 0 0 0 0 0 0 0 0 1 1 1 1 1 1 1 1 1 1 1 1 1 1 1 1 1 0 0 0 0 0 0 0
1 1 1 1 1 1 1 1 1 1 1 1 1 1 1 1 1 1 1 1 1 1 1 1 1 1 1 1 1 1 1 1 1 1 1 1 1 0 0 0 0 0 0
2 2 2 2 2 2 2 1 1 1 1 1 1 1 1 1 1 1 1 1 1 1 1 1 1 1 1 1 1 1 1 1 1 1 1 1 1 1 0 0 0 0 0
3 3 3 3 2 2 2 2 2 1 1 1 1 1 1 1 1 1 1 1 1 1 1 1 1 1 1 1 1 1 1 1 1 1 1 1 1 1 0 0 0 0 0
4 5 5 4 3 3 2 2 2 2 1 1 1 1 1 1 1 1 1 1 1 1 1 1 1 1 1 1 1 1 1 1 1 1 1 1 1 1 1 0 0 0 0
6 7 7 5 4 3 3 2 2 1 1 1 1 1 1 1 1 1 1 1 1 1 1 1 1 1 1 1 1 1 1 1 1 2 2 2 1 1 1 1 0 0 0
7 7 7 6 4 3 3 2 2 1 1 1 1 1 0 0 1 1 1 1 1 1 1 1 1 2 2 1 1 1 1 1 1 2 2 1 1 1 1 1 0 0 0
5 6 6 5 4 3 3 2 2 1 1 1 1 1 1 1 1 1 1 1 1 1 1 1 1 1 1 2 1 1 1 1 1 2 2 1 1 1 1 1 1 0 0
3 3 3 2 3 3 2 2 1 1 1 1 1 1 1 1 1 1 1 1 1 1 1 1 1 1 1 2 2 1 1 1 1 1 1 1 1 1 1 1 1 1 1
2 2 1 1 1 2 2 2 1 1 1 1 1 1 1 1 1 1 1 1 1 1 1 1 1 1 1 1 2 1 1 1 1 1 1 2 1 1 1 1 1 1 1
2 1 1 1 1 1 2 2 1 1 1 1 1 1 1 1 1 1 1 1 1 1 1 1 1 1 1 2 2 1 1 0 0 1 1 2 1 1 1 1 1 1 1
2 1 1 1 1 1 1 1 1 1 1 1 1 1 1 1 1 1 0 1 1 1 1 1 1 1 2 2 2 1 1 1 0 0 1 1 1 0 0 0 0 1 1
1 1 1 1 1 1 1 1 1 1 1 1 1 1 1 1 1 0 0 0 1 1 1 1 1 1 2 2 2 1 1 1 0 0 0 0 0 0 0 0 0 0 0
1 1 1 1 1 1 1 1 1 1 1 1 0 0 0 0 0 0 0 0 0 0 0 0 0 1 1 1 1 1 1 1 0 0 0 0 0 0 0 0 0 0 0
0 0 0 1 1 0 1 1 1 1 1 1 0 0 0 0 0 0 0 0 0 0 0 0 0 0 0 1 1 1 1 1 0 0 0 0 0 0 0 0 0 0 0
0 0 0 0 0 0 0 0 0 1 1 0 0 0 0 0 0 0 0 0 0 0 0 0 0 0 0 0 1 1 1 1 1 0 0 0 0 0 0 0 0 0 0
0 0 0 0 0 0 0 0 0 0 0 0 0 0 0 0 0 0 0 0 0 0 0 0 1 1 1 1 1 1 1 1 1 0 0 0 0 0 0 0 0 0 0
0 0 0 0 0 0 0 0 0 0 0 0 0 0 0 0 0 0 0 0 0 0 0 1 1 1 1 1 1 1 1 1 1 0 0 0 0 0 0 0 0 0 0
0 0 0 0 0 0 0 0 0 0 0 0 0 0 0 0 0 0 0 0 0 0 0 0 0 0 1 1 1 1 1 1 1 0 0 0 0 0 0 0 0 0 0
0 0 0 0 0 0 0 0 0 0 0 0 0 0 0 0 0 0 0 0 0 0 0 0 0 0 0 0 0 0 1 1 0 0 0 0 0 0 0 0 0 0 0
0 0 0 0 0 0 0 0 0 0 0 0 0 0 0 0 0 0 0 0 0 0 0 0 0 0 0 0 0 0 0 0 0 0 0 0 0 0 0 0 0 0 0
0 0 0 0 0 0 0 0 0 0 0 0 0 0 0 0 0 0 0 0 0 0 0 0 0 0 0 0 0 0 0 0 0 0 0 0 0 0 0 0 0 0 0
0 0 0 0 0 0 0 0 0 0 0 0 0 0 0 0 0 0 0 0 0 0 0 0 0 0 0 0 0 0 0 0 0 0 0 0 0 0 0 0 0 0 0
0 0 0 0 0 0 0 0 0 0 0 0 0 0 0 0 0 0 0 0 0 0 0 0 0 0 0 0 0 0 0 0 0 0 0 0 0 0 0 0 0 0 0
0 0 0 0 0 0 0 0 0 0 0 0 0 0 0 0 0 0 0 0 0 0 0 0 0 0 0 0 0 0 0 0 0 0 0 0 0 0 0 0 0 0 0
Wind_Speed
8 7 6 6 8 6 7 7 8 7 7 9 9 8 8 7 8 7 5 9 12 13 13 13 13 14 14 14 13 13 13 13 13 14 15 16 16 16 16 16 17 16 16
8 8 8 8 8 8 7 6 7 7 7 7 9 9 9 9 7 8 9 6 12 13 13 12 13 13 14 14 14 14 14 13 13 13 14 14 15 15 16 15 16 16 16
10 9 9 9 9 8 8 8 9 8 8 8 9 9 8 8 8 8 9 8 8 13 16 14 14 14 14 15 15 15 14 14 14 14 14 14 14 14 15 15 16 16 17
12 10 10 10 9 8 8 7 8 8 7 7 7 7 7 7 9 9 9 9 8 8 11 16 15 14 14 15 16 16 15 14 15 15 15 14 14 14 14 14 15 15 17
13 11 11 10 9 9 8 8 8 7 7 7 8 8 8 8 9 11 10 11 10 9 9 10 15 14 15 16 17 17 17 16 16 16 16 16 16 15 15 14 14 15 17
11 11 11 13 12 9 7 7 8 7 7 8 9 9 9 11 11 11 12 11 11 13 13 11 9 12 16 15 16 17 18 16 15 16 17 17 17 17 16 15 15 15 17
9 10 11 11 10 9 8 8 7 9 9 7 9 10 10 12 13 10 10 11 12 13 13 12 10 10 8 15 16 16 17 17 16 16 17 17 18 17 17 17 16 16 17
10 10 11 9 9 8 8 7 7 8 9 7 8 9 9 9 8 9 9 9 11 10 12 13 12 10 9 8 8 15 15 16 17 17 17 17 17 16 17 18 17 16 17
11 8 7 6 6 7 6 7 7 8 7 6 5 6 7 8 7 6 7 8 9 8 9 9 11 10 11 9 8 12 14 13 14 16 16 16 16 16 16 18 18 18 18
8 8 7 5 5 5 6 7 6 5 6 6 4 5 7 6 6 7 8 7 7 8 8 6 7 8 10 9 8 5 10 12 12 13 14 15 16 16 16 17 20 20 19
5 6 7 7 5 5 5 6 5 6 4 5 4 4 5 6 8 7 9 8 6 6 6 6 6 6 7 8 7 10 13 12 11 11 12 11 10 11 12 15 18 19 21
5 7 7 7 7 5 6 7 6 6 4 4 4 4 5 5 5 6 8 8 6 6 6 5 5 5 5 6 8 3 7 9 9 8 9 8 9 9 11 14 16 19 22
6 8 8 8 7 6 6 6 6 5 4 4 5 4 3 4 4 5 6 6 6 5 3 3 2 3 4 4 4 0 7 8 8 8 8 9 10 11 13 15 18 20 21
6 8 8 8 8 8 7 5 4 4 3 4 3 3 2 2 2 2 3 4 5 3 1 2 2 1 3 4 4 6 4 7 6 7 8 9 10 12 13 15 17 19 19
5 7 7 7 7 6 5 5 3 4 3 2 1 2 3 3 3 3 3 3 5 6 4 2 3 3 4 4 4 6 4 6 6 7 8 9 10 12 13 14 16 17 17
5 7 7 7 6 5 4 4 5 3 2 2 2 3 3 3 3 3 4 3 4 6 6 4 4 6 7 6 4 6 5 4 7 7 7 8 9 11 12 11 12 15 16
5 6 7 7 6 5 4 3 3 3 3 4 3 4 4 5 5 5 5 4 4 5 7 6 4 4 6 7 4 3 3 4 4 7 6 7 9 9 8 8 8 11 14
4 5 5 5 5 5 4 4 4 5 5 5 5 5 5 5 5 6 6 5 4 4 6 8 7 6 6 7 7 5 4 5 4 6 7 7 7 6 5 5 6 9 13
3 4 5 5 5 6 5 6 7 7 7 6 6 6 5 5 6 5 6 7 6 5 4 5 6 5 6 8 9 6 5 4 4 5 7 6 5 4 3 3 4 8 13
5 6 7 7 7 7 8 8 8 8 8 8 7 6 6 6 7 7 5 6 7 6 5 5 5 6 7 9 9 9 7 4 2 4 3 2 2 3 3 3 5 9 12
7 7 8 8 9 8 8 8 9 9 9 9 8 8 9 8 7 7 7 8 9 7 6 6 7 7 8 9 9 8 9 7 1 1 2 1 1 2 3 5 6 9 11
7 7 9 9 9 9 9 9 7 9 9 9 8 8 8 7 5 5 6 7 10 10 10 9 9 9 9 9 8 7 7 7 4 3 1 2 2 2 1 1 6 10 10
7 8 9 10 10 9 8 8 6 7 9 8 8 7 8 9 8 7 4 3 5 5 5 8 10 10 11 11 9 9 7 5 5 5 3 4 4 3 3 3 6 8 9
6 6 8 10 9 9 7 6 3 7 8 7 7 7 8 9 10 10 7 8 7 7 7 8 8 8 9 10 10 7 4 1 3 3 3 3 4 4 3 3 3 4 7
5 5 7 9 9 8 5 3 2 7 6 6 6 7 6 8 11 14 7 7 7 6 2 1 3 5 5 5 9 9 9 7 4 5 3 2 1 2 3 3 3 2 3
6 5 6 7 9 8 4 1 5 4 6 5 5 7 10 9 11 14 9 8 8 8 8 5 2 4 5 6 8 10 10 9 7 5 5 3 1 1 2 1 1 0 0
Wind_Direction
240 241 242 248 256 249 236 235 250 260 268 266 262 260 271 268 267 270 264 218 228 237 241 243 239 238 237 237 231 228 230 231 229 224 225 228 230 230 228 226 223 218 211
243 247 241 236 244 249 254 262 261 261 258 261 268 272 273 274 266 263 267 249 223 228 233 238 241 239 236 235 232 232 230 228 227 222 220 223 225 227 228 227 224 220 211
238 240 246 241 239 241 241 246 253 255 256 252 252 258 262 266 268 264 268 271 251 219 217 227 234 234 233 233 234 232 226 220 221 221 218 218 221 224 226 225 223 221 213
253 248 249 246 242 243 243 242 252 258 259 264 271 277 276 270 261 259 256 250 257 260 222 211 222 228 229 230 233 230 227 222 220 219 217 217 219 220 223 223 222 220 214
264 260 262 261 255 251 253 257 252 261 269 270 270 265 266 262 264 261 260 262 260 254 256 211 207 222 227 228 228 228 228 226 221 218 218 219 219 219 221 222 221 219 214
278 273 265 261 259 256 254 258 268 263 267 268 277 281 271 267 262 261 260 258 254 253 252 250 226 216 214 223 227 227 228 228 222 218 219 219 222 220 219 221 220 218 214
268 270 267 265 260 260 257 256 260 262 261 270 278 279 273 265 260 259 259 265 263 259 257 253 243 242 212 209 220 229 233 232 228 222 221 220 221 220 216 218 219 217 213
250 252 250 251 255 253 248 248 251 274 282 279 282 290 286 275 251 247 249 250 258 263 256 243 234 230 239 238 211 212 228 236 235 227 223 223 222 219 216 217 219 215 213
247 234 221 221 237 247 247 251 257 260 274 272 262 270 288 298 322 278 259 258 260 264 261 255 237 228 232 235 233 203 211 228 234 232 227 224 223 222 219 218 218 214 210
225 207 191 190 218 246 249 249 246 256 258 266 257 248 256 275 278 288 273 256 246 253 259 259 252 236 232 235 224 241 205 221 230 238 238 232 226 223 221 221 222 215 209
198 193 176 175 191 226 241 244 232 245 251 267 270 266 265 261 253 258 277 284 279 264 247 237 242 249 248 246 246 234 199 217 230 242 249 242 230 225 227 229 229 221 213
188 192 182 177 188 207 217 225 231 232 250 270 275 267 262 260 261 257 270 283 286 273 260 250 248 249 256 262 256 172 188 217 223 225 233 238 241 241 243 243 240 233 224
193 193 190 185 187 194 210 221 223 237 238 254 267 274 275 276 280 285 285 291 286 284 284 286 297 288 284 298 316 104 215 213 213 217 229 238 243 243 244 244 242 238 231
183 177 187 184 181 185 198 202 209 210 226 243 264 305 298 304 315 331 314 311 305 297 288 5 337 329 347 332 354 291 222 184 204 225 238 246 251 251 248 246 243 238 231
152 160 165 166 165 170 178 188 189 206 220 249 303 313 313 327 319 323 310 317 319 318 325 357 341 346 327 329 331 297 259 171 208 228 241 249 255 259 258 252 240 230 222
155 156 152 146 142 145 161 194 177 160 138 73 34 10 353 339 330 324 321 313 304 302 305 319 320 331 330 313 307 309 302 184 223 233 244 252 258 263 267 265 242 221 209
152 145 136 134 136 138 141 160 137 127 101 76 55 42 35 23 9 356 352 338 319 305 293 297 304 327 329 323 309 282 258 240 222 220 239 254 261 268 279 275 242 209 192
165 142 136 133 134 128 130 135 121 95 82 73 64 57 48 49 34 14 348 345 334 318 307 314 321 328 329 329 319 291 256 242 228 202 218 242 256 269 276 264 221 190 176
108 110 115 120 119 118 117 104 89 79 75 72 70 70 60 43 25 18 354 353 344 354 354 332 339 346 343 346 334 317 276 251 234 182 202 224 240 253 242 214 172 164 161
111 110 111 112 111 108 101 93 87 83 83 81 77 73 59 40 21 358 5 11 8 14 36 27 18 10 6 360 359 347 333 299 235 174 176 206 202 218 201 163 146 144 144
118 117 120 116 113 107 94 93 97 91 89 89 83 71 61 49 29 2 7 12 13 12 29 33 31 24 17 8 7 352 343 332 305 146 164 188 237 235 183 168 155 146 145
121 125 121 112 102 89 71 65 82 93 88 86 86 89 93 68 79 64 36 25 16 16 16 12 29 21 16 6 358 360 359 0 1 3 25 38 351 320 303 187 141 146 151
127 130 123 109 99 95 90 75 56 92 88 79 73 63 63 57 29 51 94 156 76 44 355 336 23 9 11 6 346 359 21 25 26 357 19 32 4 343 352 50 123 151 157
125 132 126 114 112 113 108 102 89 100 94 89 82 76 68 54 26 358 33 43 44 42 20 16 10 3 12 353 340 334 341 116 110 65 46 41 8 357 1 41 66 151 164
128 132 122 123 125 131 142 151 223 124 116 102 82 57 48 56 16 347 11 27 25 22 126 185 296 294 285 319 345 354 359 355 38 72 66 73 38 13 12 25 29 42 168
142 133 122 129 134 139 152 207 278 163 137 138 127 115 72 40 16 358 5 19 14 359 344 346 326 332 354 17 19 14 7 3 9 39 34 9 63 107 80 35 15 289 34